Regional Weather Roundup
Issued by NWS Mobile, AL

Home | Current Version | Previous Version | Text Only | Print | Product List | Glossary On
Versions: 1 2 3 4 5 6 7 8 9 10 11 12 13 14 15 16 17 18 19 20 21 22 23 24 25 26 27 28 29 30 31 32 33 34 35 36 37 38 39 40 41 42 43 44 45 46 47 48 49 50
000
ASUS44 KMOB 240412
RWRMOB
REGIONAL WEATHER ROUNDUP
NATIONAL WEATHER SERVICE MOBILE AL
1000 PM CST THU FEB 23 2017

NOTE: "FAIR" INDICATES FEW OR NO CLOUDS BELOW 12,000 FEET WITH NO
      SIGNIFICANT WEATHER AND/OR OBSTRUCTIONS TO VISIBILITY.

  * THESE STATIONS ARE PART OF THE UNIVERSITY OF SOUTH ALABAMA
    MESONET AND ARE NOT UNDER NWS OR FAA QUALITY CONTROL.

ALZ061>064-240500-
COASTAL ALABAMA

CITY           SKY/WX    TMP DP  RH WIND       PRES   REMARKS
MOBILE REG APT PTCLDY    61  59  93 S5        29.85R FOG
BROOKLEY FIELD CLEAR     59  59 100 CALM      29.86R FOG
USA CAMPUS*    NOT AVBL
DOG RIVER*     NOT AVBL


CITY           SKY/WX    TMP DP  RH WIND       PRES   REMARKS
GULF SHORES    FOG       58  58 100 CALM      29.85S VSB<1/4

$$

ALZ051>060-240500-
INTERIOR SOUTHWEST AND SOUTH CENTRAL ALABAMA

CITY           SKY/WX    TMP DP  RH WIND       PRES   REMARKS
GREENVILLE     CLEAR     60  56  86 CALM      29.84R
EVERGREEN      CLEAR     60  57  89 CALM      29.84S
ATMORE*        NOT AVBL
ANDALUSIA/OPP  CLEAR     63  59  87 CALM      29.84R
ANDALUSIA*     NOT AVBL
FLORALA APT    CLEAR     60  57  89 CALM      29.86R
FLORALA*       NOT AVBL

$$

FLZ001>006-240500-
WESTERN FLORIDA PANHANDLE

CITY           SKY/WX    TMP DP  RH WIND       PRES   REMARKS
PENSACOLA      CLEAR     65  62  90 W6        29.84R
NAS PENSACOLA  CLEAR     61  60  97 CALM      29.84S FOG
MILTON         CLEAR     60  60 100 CALM      29.84S
WHTNG S FIELD  CLEAR     64  62  93 CALM      29.85R


CITY           SKY/WX    TMP DP  RH WIND       PRES   REMARKS
JAY*           NOT AVBL
DUKE FIELD     CLEAR     63  61  91 CALM      29.83S
CRESTVIEW      CLEAR     60  58  92 CALM      29.85S
VALPARAISO     CLEAR     63  62  95 W3        29.84R
DESTIN         CLEAR     68  68 100 CALM      29.84R

$$

MSZ076-079-240500-
INTERIOR SOUTHEAST MISSISSIPPI

CITY           SKY/WX    TMP DP  RH WIND       PRES   REMARKS
LEAKESVILLE*   NOT AVBL
AGRICOLA*      NOT AVBL

$$

MARINE OBSERVATIONS

STATION/POSITION TIME  TEMP    WIND        PRES    WAVE
                       AIR SEA DIR/SP/G            HT/PER
                 (UTC) (F)     (DEG/KT/KT) (MB)    (FT/S)
PASCAGOULA       0348   66     170/  9/ 10 1010.5R
PETIT BOIS ISLND 0348   65     180/  8/  9 1011.3R
GRAND BAY        0230   66     200/  6     1011.0S
KATRINA CUT      0330          210/  8     1010.2S
CEDAR POINT      0330   66     210/  8     1010.5R
E DAUPHIN ISLAND 0300   66     200/  5/  7 1010.1R
MIDDLE BAY LIGHT 0330   66     180/  7     1010.5R
USCG MOBILE BAY  0348   62 66  190/  2/  3 1011.3R
STATE DOCKS      0348   64 64              1010.5R
MEAHER PARK      0330   65     190/  6     1010.8R
WEEKS BAY        0245   61                   N/A
FORT MORGAN      0348   66     210/  8/  9   N/A
12 S ORANGE BCH  0350   67 68  240/  6/  8 1010.5R   1/ 5
PENSACOLA BAY    0348   65 68  290/  5/  7 1010.7R
67 S FORT MORGAN 0330   68     120/  4     1010.8R

$$

SELECTED LOCATIONS ACROSS THE REGION

CITY           SKY/WX    TMP DP  RH WIND       PRES   REMARKS
NEW ORLEANS    PTCLDY    66  62  87 SE8       29.80F
GULFPORT       CLEAR     63  62  97 S5        29.83S
PASCAGOULA AP  PTCLDY    56  54  93 CALM      29.85R
PASCAGOULA*    NOT AVBL
HATTIESBURG    CLEAR     64  57  78 S10       29.81S
LAUREL         CLEAR     63  54  72 S7        29.82S
MERIDIAN       CLEAR     67  59  75 S9        29.79R
JACKSON        CLEAR     67  56  67 S10       29.74R
MONTGOMERY     CLEAR     66  55  67 SE3       29.84R
TROY           CLEAR     58  57  97 CALM      29.86R
ASHFORD*       NOT AVBL
DOTHAN         CLEAR     59  59 100 CALM      29.88R
PANAMA CITY    CLEAR     62  59  90 CALM      29.83R

$$




USA.gov is the U.S. government's official web portal to all federal, state and local government web resources and services.